Wind_Speed
18 17 16 15 15 14 14 14 14 14 15 15 16 17 17 18 18 19 19 20 21 23 24 26 28 30 31 33 34 35 33 29 28 29 30 30 29 28 26 23 24 24
18 18 17 17 16 16 16 16 16 16 16 17 18 19 19 19 20 20 21 21 22 24 26 27 29 31 33 36 38 38 34 28 27 29 30 29 27 25 23 21 22 24
18 18 18 18 18 18 18 17 17 17 17 18 20 20 21 21 20 21 22 23 24 26 26 28 30 32 35 39 41 39 34 27 27 29 29 28 26 25 23 22 21 23
18 19 19 19 20 20 19 18 18 18 18 19 20 21 21 21 22 23 24 25 26 27 27 29 30 32 35 39 40 37 31 26 26 28 27 26 26 25 24 23 22 23
19 20 20 21 21 20 19 19 19 19 19 20 20 21 22 22 23 24 25 26 27 27 28 29 31 33 35 37 36 32 27 25 23 24 25 25 26 26 24 22 22 23
19 20 21 21 21 20 20 20 20 20 21 21 22 22 23 24 24 25 25 26 27 28 29 30 31 33 34 34 32 28 25 24 21 21 24 25 26 25 23 22 22 23
19 20 20 21 21 21 21 21 21 22 22 23 23 24 24 25 25 25 25 26 27 28 29 30 31 32 32 32 30 27 24 22 20 19 21 24 24 23 22 22 22 24
19 20 20 21 21 21 22 22 23 23 23 24 25 25 26 26 26 25 25 26 27 28 29 29 30 31 31 31 29 26 24 22 20 19 19 21 21 21 22 22 22 24
20 20 21 22 22 23 23 24 25 26 26 26 26 26 26 26 26 25 25 26 27 28 30 29 29 30 31 31 30 27 25 23 21 19 19 19 19 20 21 22 22 23
21 23 23 24 25 26 26 27 27 27 27 26 26 25 25 25 25 25 25 25 26 28 29 30 30 30 30 31 30 27 24 23 20 18 19 19 19 20 21 22 21 22
23 24 25 25 26 26 27 27 27 27 27 26 25 25 24 24 24 24 24 25 26 27 28 29 30 29 29 29 29 25 23 21 20 18 18 18 18 19 20 21 21 21
22 23 24 25 25 26 26 26 26 27 27 26 25 25 25 24 24 24 24 25 26 27 28 29 29 29 28 28 27 25 22 20 20 19 17 17 18 18 19 20 20 21
22 23 24 25 26 27 27 27 27 27 27 27 26 26 26 25 25 25 25 25 26 28 29 29 28 28 26 26 25 24 23 20 20 21 19 18 18 17 17 18 18 19
23 24 25 26 27 28 28 28 28 28 28 28 27 27 27 26 26 26 26 26 27 28 29 29 28 27 25 23 22 22 22 21 19 19 18 17 18 17 17 17 17 18
23 24 25 26 26 27 27 27 27 27 27 27 27 27 27 27 27 27 27 27 27 28 29 29 27 27 25 22 20 20 20 20 18 17 17 17 17 18 18 18 17 19
23 23 23 24 24 25 25 25 25 25 25 25 25 25 25 25 25 25 25 26 27 27 29 29 27 26 25 23 20 19 19 19 18 17 17 18 17 17 18 18 18 19
21 21 21 22 22 23 23 24 24 24 24 24 24 24 24 23 23 23 23 24 25 26 28 28 27 25 24 23 21 18 17 17 17 16 17 18 18 18 18 19 19 19
21 21 21 22 23 23 24 24 25 25 25 25 25 25 25 24 24 23 22 23 24 25 27 28 27 26 25 23 21 18 17 17 16 15 16 17 18 19 20 19 18 18
21 22 22 23 23 24 24 25 26 26 26 26 26 26 26 25 25 24 22 22 23 24 25 26 26 25 25 24 21 19 18 18 17 16 16 18 19 21 21 21 19 17
21 21 21 22 22 23 24 24 25 26 26 26 26 27 27 26 25 24 24 23 22 23 25 25 25 24 24 24 23 21 20 20 20 19 18 18 20 21 22 22 20 18
19 19 20 20 21 22 23 23 24 25 26 26 25 26 27 27 26 25 24 23 22 23 24 26 26 24 23 22 22 21 21 21 22 22 21 20 20 21 22 23 22 22
17 18 19 19 20 21 22 23 24 24 25 25 25 25 25 26 26 25 25 24 23 22 23 25 26 26 24 23 21 20 21 21 22 23 24 23 22 22 22 22 23 24
17 18 18 19 19 20 21 22 23 24 24 25 25 25 25 25 25 25 25 25 23 23 22 23 25 25 25 24 23 21 20 19 21 22 24 26 26 25 25 23 23 24
18 18 19 20 20 21 22 23 23 24 24 25 25 26 26 26 25 25 25 26 25 24 23 23 24 24 24 24 24 23 21 19 19 20 22 25 27 28 28 27 25 25
18 19 20 20 21 22 23 24 24 24 25 25 25 26 26 26 26 25 25 25 25 25 24 23 23 24 23 23 22 23 22 21 19 19 20 22 25 27 28 30 30 29
19 20 21 21 22 23 23 24 24 24 25 25 25 26 26 26 27 27 26 25 24 25 25 24 24 23 23 23 22 21 22 21 20 19 19 20 21 24 26 29 32 34
Wind_Direction
309 307 307 307 309 310 309 307 307 308 308 307 305 303 304 304 304 305 308 311 313 315 316 316 315 314 314 315 315 313 308 295 285 283 280 277 276 275 273 270 267 261
307 305 304 305 308 310 309 309 310 311 312 310 308 307 308 307 307 308 309 312 315 317 317 315 315 315 314 315 315 313 308 293 277 275 275 273 271 269 268 266 262 256
305 304 303 305 307 308 307 308 310 312 313 313 312 311 310 309 309 309 310 314 316 316 316 315 315 315 315 316 316 313 307 292 275 271 271 270 267 263 261 260 258 254
302 301 302 304 306 306 305 305 307 310 313 314 314 312 310 309 310 310 311 314 315 314 315 315 314 315 317 317 317 314 308 296 281 273 271 269 264 259 256 254 253 252
297 297 299 301 303 303 302 303 306 309 311 313 314 312 310 309 309 310 311 312 312 312 313 314 314 316 319 320 321 317 310 303 291 276 271 269 262 258 254 250 248 248
296 297 298 300 301 301 302 303 305 308 310 312 312 312 310 309 309 309 309 310 310 311 312 314 315 318 321 324 324 320 312 308 298 278 270 269 267 264 257 250 245 242
297 298 299 300 301 302 302 304 305 307 308 309 310 311 309 309 309 308 308 309 309 309 311 314 316 319 324 327 326 321 313 309 302 286 276 273 270 265 259 253 246 239
299 300 301 301 302 303 304 304 305 306 307 307 307 307 307 307 307 307 308 308 308 309 311 314 316 318 323 327 326 320 314 309 304 295 284 277 271 264 259 257 250 240
303 303 302 303 303 303 304 304 305 304 304 304 303 303 303 304 305 305 307 307 307 309 311 313 315 317 322 326 325 320 313 307 303 298 289 278 269 263 258 255 252 244
303 302 301 301 302 303 303 304 304 303 303 303 302 302 302 302 303 304 305 305 306 308 309 312 314 316 320 325 325 320 312 302 296 294 290 279 267 259 256 256 254 248
303 302 301 301 301 302 303 303 304 303 304 304 303 303 302 301 301 301 301 302 303 306 308 310 313 315 318 323 326 323 314 300 290 288 290 283 271 260 257 257 254 249
303 303 302 302 303 303 303 304 304 305 305 305 304 304 303 301 300 299 299 299 301 303 306 309 311 314 316 322 327 327 319 302 285 282 285 280 270 262 260 261 256 249
300 301 301 302 303 303 304 304 305 305 305 305 305 304 303 302 301 299 298 298 299 301 303 306 310 312 314 320 327 328 324 311 289 278 277 273 267 263 263 263 258 250
298 299 299 300 300 301 302 303 304 305 305 306 306 305 304 303 301 300 299 298 298 299 301 303 306 308 309 315 323 326 324 317 297 279 273 270 264 260 262 263 258 253
298 299 299 299 300 300 301 303 304 305 306 307 307 306 306 305 303 302 300 298 297 297 298 300 302 304 304 305 313 322 323 318 303 283 270 266 262 259 260 261 257 254
302 303 303 303 303 303 304 305 307 308 309 309 309 309 309 308 306 305 302 300 298 295 295 296 298 300 301 300 302 313 321 319 307 290 273 265 262 258 257 258 254 251
308 310 310 310 310 311 311 311 312 312 313 313 313 313 313 311 310 308 306 302 299 296 294 295 296 296 296 296 294 301 315 316 308 295 277 268 264 258 256 258 256 250
315 316 317 318 318 318 318 318 317 316 317 317 316 316 316 316 315 313 310 306 302 299 297 297 299 298 296 293 288 289 300 307 306 295 279 269 265 261 257 257 258 253
319 321 322 323 323 322 322 321 320 319 319 319 320 319 319 319 318 316 314 310 304 301 299 300 301 301 299 297 291 284 284 289 295 293 281 269 265 263 260 255 255 253
323 325 326 327 326 324 323 322 320 319 319 319 320 319 318 317 317 316 314 312 308 304 301 301 302 302 300 298 295 288 280 277 281 285 283 274 268 265 261 257 253 250
332 333 334 334 331 328 326 324 322 320 319 319 318 318 316 315 316 316 314 313 310 306 303 302 303 304 302 299 296 292 284 277 275 275 277 275 272 268 263 258 255 251
343 342 341 340 336 333 330 328 327 326 324 323 322 320 318 317 317 316 313 312 310 308 305 303 303 305 304 301 298 293 287 281 274 271 270 271 271 270 266 261 257 254
352 351 348 346 342 338 336 334 333 332 330 328 326 325 322 321 320 318 315 313 312 309 307 304 304 305 305 303 301 296 289 282 276 270 267 267 267 268 268 265 261 258
0 360 357 354 351 348 345 344 341 339 337 335 333 331 328 326 325 324 321 318 315 311 309 306 306 306 306 305 304 301 296 288 280 274 267 264 264 265 267 267 265 262
10 9 6 3 0 357 355 352 350 348 346 343 340 338 336 334 331 329 326 323 320 316 311 308 307 307 307 307 305 303 301 295 287 280 272 266 263 262 264 266 265 263
19 17 13 10 7 4 2 359 356 354 352 350 348 345 343 342 339 336 333 330 327 323 317 312 310 308 308 309 307 304 303 301 296 288 280 273 267 262 261 261 260 259
Height
3144 3144 3143 3143 3143 3142 3142 3141 3141 3140 3140 3139 3138 3138 3137 3136 3135 3134 3133 3132 3130 3129 3127 3125 3123 3121 3119 3118 3116 3114 3112 3110 3109 3109 3108 3108 3107 3106 3106 3107 3108 3109
3142 3141 3141 3141 3140 3140 3139 3139 3138 3137 3136 3135 3135 3134 3134 3133 3131 3130 3129 3128 3127 3126 3124 3122 3120 3118 3115 3113 3110 3108 3107 3105 3104 3103 3103 3103 3102 3102 3102 3103 3104 3105
3140 3139 3139 3138 3138 3138 3137 3136 3135 3135 3134 3133 3132 3131 3130 3129 3128 3127 3126 3125 3124 3122 3120 3118 3116 3114 3111 3108 3105 3102 3100 3099 3098 3098 3098 3099 3098 3098 3099 3099 3100 3101
3138 3137 3137 3136 3136 3135 3135 3134 3133 3132 3131 3130 3129 3128 3127 3125 3125 3123 3122 3121 3120 3118 3116 3114 3112 3110 3107 3104 3100 3097 3095 3094 3094 3093 3094 3094 3094 3093 3095 3095 3096 3097
3136 3136 3135 3134 3134 3133 3132 3132 3131 3130 3129 3128 3127 3125 3124 3123 3122 3120 3119 3117 3116 3114 3113 3111 3109 3106 3103 3100 3097 3094 3092 3091 3090 3090 3090 3090 3089 3089 3090 3091 3092 3093
3135 3134 3133 3132 3132 3131 3130 3129 3128 3127 3126 3125 3124 3123 3121 3120 3119 3118 3116 3115 3113 3111 3109 3107 3105 3103 3101 3097 3094 3091 3089 3088 3087 3087 3086 3086 3086 3086 3086 3087 3088 3090
3133 3132 3131 3131 3130 3129 3128 3127 3126 3125 3124 3123 3121 3120 3119 3117 3116 3115 3113 3112 3110 3108 3106 3104 3102 3100 3098 3095 3092 3090 3088 3086 3085 3084 3084 3084 3083 3084 3084 3084 3086 3087
3131 3130 3130 3129 3128 3127 3126 3124 3123 3123 3121 3120 3119 3117 3116 3115 3113 3112 3110 3109 3107 3105 3103 3101 3099 3097 3095 3092 3090 3088 3086 3084 3083 3082 3082 3081 3081 3081 3082 3082 3083 3085
3129 3128 3127 3127 3126 3125 3123 3122 3121 3120 3119 3118 3116 3115 3113 3112 3110 3109 3107 3106 3104 3101 3100 3098 3096 3094 3092 3089 3087 3085 3084 3082 3081 3080 3079 3079 3079 3079 3080 3080 3080 3081
3126 3126 3125 3124 3123 3122 3121 3120 3118 3117 3116 3115 3113 3112 3110 3109 3107 3105 3104 3102 3101 3099 3097 3095 3093 3091 3089 3087 3084 3082 3081 3080 3079 3078 3077 3077 3077 3077 3078 3078 3078 3078
3124 3123 3122 3121 3121 3119 3118 3117 3116 3114 3113 3112 3110 3109 3107 3106 3104 3103 3101 3099 3098 3096 3094 3092 3090 3088 3087 3085 3082 3080 3078 3077 3076 3075 3075 3075 3075 3074 3075 3075 3076 3076
3122 3121 3120 3119 3118 3117 3115 3114 3113 3111 3110 3109 3107 3106 3104 3103 3101 3100 3098 3096 3095 3093 3091 3089 3087 3086 3084 3082 3080 3077 3076 3074 3074 3073 3073 3073 3072 3072 3072 3072 3073 3074
3119 3118 3117 3116 3115 3114 3112 3111 3110 3108 3107 3105 3104 3103 3101 3100 3098 3097 3095 3093 3092 3090 3088 3086 3085 3083 3081 3079 3077 3075 3074 3072 3071 3071 3071 3070 3069 3069 3069 3070 3071 3071
3117 3116 3115 3113 3112 3111 3109 3108 3107 3105 3104 3102 3101 3099 3098 3096 3095 3093 3092 3090 3089 3087 3085 3083 3082 3080 3079 3077 3076 3074 3072 3070 3069 3069 3068 3068 3067 3067 3067 3067 3068 3068
3115 3113 3112 3111 3109 3108 3106 3105 3104 3102 3101 3099 3097 3096 3094 3093 3091 3090 3088 3087 3085 3083 3081 3080 3078 3077 3076 3074 3074 3072 3070 3068 3067 3066 3066 3065 3065 3065 3065 3065 3065 3065
3112 3111 3109 3108 3106 3105 3104 3102 3101 3100 3098 3096 3094 3093 3091 3090 3088 3086 3085 3083 3082 3080 3078 3076 3075 3074 3072 3071 3070 3070 3068 3067 3065 3064 3063 3063 3063 3063 3063 3063 3063 3063
3109 3108 3107 3106 3104 3103 3101 3100 3098 3097 3095 3094 3092 3090 3089 3087 3085 3084 3082 3080 3078 3076 3075 3073 3072 3070 3069 3068 3067 3066 3066 3065 3064 3062 3061 3061 3060 3060 3060 3060 3060 3060
3107 3106 3105 3104 3102 3101 3099 3097 3096 3094 3093 3091 3089 3088 3086 3084 3083 3081 3079 3078 3075 3073 3072 3070 3068 3067 3066 3065 3064 3063 3063 3063 3062 3061 3059 3059 3058 3057 3057 3057 3057 3058
3105 3104 3103 3102 3100 3099 3097 3095 3093 3092 3090 3088 3087 3085 3083 3082 3080 3078 3077 3075 3073 3071 3069 3067 3066 3064 3063 3062 3061 3060 3060 3060 3059 3058 3057 3056 3055 3055 3055 3054 3055 3056
3104 3103 3102 3100 3098 3097 3095 3093 3091 3089 3088 3086 3085 3082 3080 3079 3077 3075 3074 3072 3070 3068 3067 3065 3063 3062 3060 3059 3058 3057 3056 3056 3056 3055 3055 3054 3053 3052 3052 3052 3053 3054
3103 3101 3100 3099 3097 3095 3093 3091 3089 3087 3086 3084 3083 3080 3078 3076 3075 3073 3071 3069 3068 3066 3064 3062 3060 3059 3058 3056 3055 3054 3053 3053 3052 3052 3051 3050 3050 3049 3049 3049 3050 3050
3102 3100 3099 3097 3096 3094 3092 3090 3088 3086 3084 3082 3080 3078 3076 3074 3072 3070 3068 3066 3065 3063 3061 3059 3057 3056 3054 3053 3052 3051 3050 3049 3048 3048 3047 3047 3047 3046 3046 3046 3047 3047
3101 3099 3098 3096 3095 3093 3091 3089 3087 3085 3082 3080 3078 3076 3074 3072 3070 3067 3065 3063 3062 3061 3059 3057 3055 3053 3051 3050 3048 3047 3046 3045 3044 3044 3043 3043 3043 3043 3043 3043 3043 3043
3100 3099 3097 3095 3094 3092 3090 3088 3086 3083 3081 3079 3076 3074 3072 3070 3068 3065 3063 3061 3059 3057 3056 3054 3052 3050 3048 3047 3045 3044 3043 3042 3041 3040 3039 3039 3039 3039 3039 3039 3039 3039
3099 3098 3096 3095 3093 3091 3089 3087 3085 3083 3080 3078 3075 3073 3071 3068 3066 3064 3061 3059 3056 3054 3052 3051 3049 3047 3045 3044 3042 3041 3039 3038 3037 3036 3036 3035 3035 3035 3035 3035 3035 3035
3099 3097 3096 3094 3092 3090 3088 3086 3084 3082 3080 3078 3075 3072 3070 3068 3065 3062 3060 3058 3055 3052 3050 3048 3046 3044 3043 3041 3039 3038 3036 3035 3033 3033 3032 3031 3030 3030 3031 3031 3030 3030